Probability
6 29 39 39 42 45 48 55 55 55 55 45 42 39 39 45 42 42 39 45 39 35 32 29 39 35 35 32 26 26 23 13 13 16 19 16 16 13 10 13 13 3 13
6 32 39 39 39 42 42 45 48 48 45 48 39 42 35 32 35 32 29 26 32 35 35 26 23 32 32 23 26 29 19 19 16 16 19 16 16 10 6 13 13 6 13
10 29 32 35 39 39 45 45 45 45 42 39 29 32 26 29 26 29 26 23 19 23 29 26 35 32 26 23 19 19 16 16 16 16 16 10 13 13 6 6 10 10 13
16 26 29 32 32 35 35 39 39 32 32 32 29 19 23 16 19 23 23 23 16 16 16 19 26 26 19 16 16 13 13 13 13 13 6 6 6 10 6 6 10 6 10
16 29 29 32 32 32 35 32 32 29 32 29 26 23 19 23 19 23 16 13 13 13 16 16 23 19 16 16 19 10 13 16 13 13 3 6 6 13 10 13 13 6 6
13 26 26 32 32 29 29 32 29 29 29 26 23 23 23 19 16 16 16 16 10 16 16 13 16 16 13 10 10 10 10 16 13 6 6 6 10 13 13 13 13 10 6
10 23 26 26 29 29 29 29 26 26 26 26 16 16 23 19 19 19 16 19 16 10 16 19 16 10 13 6 13 6 6 13 6 3 6 6 6 13 16 13 16 13 10
10 23 26 26 29 29 29 29 26 26 26 23 16 16 19 19 19 13 10 10 13 10 13 19 13 10 10 10 10 6 3 3 0 3 3 6 6 10 13 13 19 16 16
10 13 16 19 23 26 29 29 26 26 26 23 13 13 13 10 13 10 6 6 3 10 10 13 13 3 3 3 3 3 3 3 0 3 3 6 10 10 13 16 16 19 16
13 13 13 13 13 19 23 19 19 16 16 13 10 6 3 3 6 13 6 6 3 6 10 10 6 0 3 3 3 0 3 0 0 0 6 6 3 10 13 16 19 16 13
10 13 16 13 10 16 19 13 10 6 3 3 3 0 0 0 3 6 0 0 6 6 10 10 3 0 0 3 0 0 0 0 0 0 0 3 3 10 16 16 19 16 16
10 13 13 13 16 13 13 19 19 16 13 6 6 3 3 6 0 0 0 0 0 0 6 3 6 0 0 0 0 0 0 0 0 0 0 0 0 6 13 13 19 16 16
6 13 13 13 13 13 16 13 19 19 16 13 3 6 3 6 6 0 0 0 0 0 0 0 0 0 0 0 0 0 0 0 3 0 0 0 0 0 10 10 10 16 16
3 3 10 13 13 13 13 13 13 19 19 13 3 3 3 6 6 3 0 0 0 0 3 0 0 0 0 0 0 0 0 0 0 3 0 0 0 0 3 6 10 10 13
0 0 3 6 10 13 13 13 13 16 13 10 6 0 3 3 6 6 3 0 0 0 3 0 0 0 0 0 0 0 0 0 0 0 0 0 0 0 3 3 6 10 6
0 0 0 0 3 10 13 13 13 13 10 6 3 0 3 3 3 6 3 3 0 3 3 0 0 0 0 0 0 0 0 0 0 0 0 0 0 0 3 3 10 6 10
0 0 0 0 0 3 3 10 6 6 6 3 3 0 0 0 3 3 3 3 0 0 3 0 0 0 0 0 0 0 0 0 0 0 0 0 0 0 0 6 6 6 6
0 0 0 0 0 0 0 3 3 3 3 3 6 0 0 0 0 3 3 3 0 0 0 0 0 0 0 0 0 0 0 0 0 0 0 0 0 0 0 0 3 3 6
0 0 0 0 0 0 0 0 0 3 3 3 0 0 0 0 0 0 0 0 0 0 0 0 0 0 0 0 0 0 0 0 0 0 0 0 0 0 0 0 0 3 3
0 0 0 0 0 0 0 0 0 0 3 3 0 0 0 0 0 0 0 0 0 0 0 0 0 0 0 0 0 0 0 0 0 0 0 0 0 0 0 0 0 0 0
0 0 0 0 0 0 0 0 0 0 0 6 0 0 0 0 0 0 0 0 0 0 0 0 0 0 0 0 0 0 0 0 0 0 0 0 0 0 0 0 0 0 0
0 0 0 0 0 0 0 0 0 0 3 3 3 0 0 0 0 0 0 0 0 0 0 0 0 0 0 0 0 0 0 0 0 0 0 0 0 0 0 0 0 0 0
0 0 0 0 0 0 0 0 0 0 0 0 0 0 0 0 0 0 0 0 0 0 0 0 0 0 0 0 0 0 0 0 0 0 0 0 0 0 0 0 0 0 0
0 0 0 0 0 0 0 0 3 3 0 0 0 0 0 0 0 0 0 0 0 0 0 0 0 0 0 0 0 0 0 0 0 0 0 0 0 0 0 0 0 0 0
0 0 0 0 0 0 0 0 3 0 0 0 0 0 0 0 0 0 0 0 0 0 0 0 0 0 0 0 0 0 0 0 0 0 0 0 0 0 0 0 0 0 0
0 0 0 0 0 0 0 0 0 0 0 0 0 0 0 0 0 0 0 0 0 0 0 0 0 0 0 0 0 0 0 0 0 0 0 0 0 0 0 0 0 0 0
Height
5856 5856 5857 5858 5859 5860 5860 5861 5861 5862 5863 5863 5864 5864 5864 5864 5864 5864 5864 5864 5864 5864 5864 5864 5864 5863 5863 5863 5862 5862 5862 5861 5861 5860 5859 5859 5858 5858 5857 5857 5856 5856 5855
5853 5853 5854 5855 5856 5857 5858 5858 5859 5859 5860 5860 5861 5861 5861 5861 5862 5862 5862 5861 5861 5861 5861 5861 5861 5861 5861 5860 5860 5859 5859 5859 5858 5858 5857 5856 5856 5855 5855 5854 5854 5853 5852
5849 5850 5851 5852 5853 5854 5854 5855 5856 5856 5857 5857 5858 5858 5858 5858 5859 5859 5858 5858 5858 5858 5858 5858 5858 5858 5858 5857 5857 5857 5856 5856 5855 5855 5854 5854 5853 5852 5852 5851 5851 5850 5850
5846 5847 5848 5849 5850 5850 5851 5851 5852 5853 5853 5854 5854 5854 5855 5855 5855 5855 5855 5855 5855 5854 5855 5855 5855 5855 5854 5854 5854 5853 5853 5853 5852 5851 5851 5850 5850 5849 5849 5848 5848 5847 5846
5842 5843 5844 5845 5846 5847 5847 5848 5848 5849 5849 5850 5850 5850 5851 5851 5851 5851 5851 5851 5851 5851 5851 5851 5851 5851 5850 5850 5850 5850 5849 5849 5848 5848 5847 5847 5846 5846 5845 5845 5844 5844 5843
5838 5839 5840 5841 5842 5843 5843 5844 5845 5845 5845 5846 5846 5846 5846 5846 5847 5847 5847 5847 5846 5846 5846 5846 5846 5846 5846 5846 5846 5845 5845 5844 5844 5843 5843 5843 5842 5842 5841 5841 5840 5840 5839
5834 5835 5836 5837 5838 5838 5839 5840 5840 5841 5841 5841 5841 5841 5842 5842 5842 5842 5842 5842 5841 5841 5841 5841 5841 5841 5841 5841 5841 5840 5840 5840 5839 5839 5838 5838 5838 5838 5837 5836 5836 5835 5835
5829 5830 5831 5832 5833 5834 5834 5835 5835 5836 5836 5836 5836 5836 5836 5836 5836 5836 5836 5836 5836 5836 5836 5835 5836 5836 5836 5835 5835 5835 5835 5834 5834 5834 5833 5833 5833 5833 5832 5832 5831 5830 5830
5824 5825 5826 5827 5828 5829 5829 5830 5830 5831 5831 5831 5831 5831 5831 5831 5831 5830 5830 5830 5830 5830 5829 5829 5829 5829 5829 5829 5829 5829 5829 5828 5828 5828 5828 5828 5828 5827 5827 5826 5826 5825 5825
5819 5820 5821 5822 5823 5823 5824 5824 5825 5825 5825 5825 5825 5825 5825 5825 5824 5824 5824 5823 5823 5823 5823 5822 5822 5822 5822 5822 5822 5822 5822 5822 5822 5822 5822 5822 5822 5821 5821 5821 5820 5820 5819
5814 5815 5816 5817 5817 5818 5818 5819 5819 5819 5819 5819 5819 5818 5818 5818 5817 5817 5816 5816 5815 5815 5815 5815 5815 5815 5815 5815 5815 5815 5815 5815 5815 5815 5815 5815 5815 5815 5815 5814 5814 5814 5813
5808 5809 5810 5811 5811 5812 5812 5812 5812 5813 5812 5812 5812 5811 5811 5810 5809 5809 5809 5808 5807 5807 5806 5806 5806 5806 5806 5807 5807 5807 5807 5808 5808 5808 5808 5808 5808 5808 5808 5808 5808 5807 5807
5802 5803 5804 5805 5805 5806 5806 5806 5806 5806 5805 5805 5804 5804 5803 5802 5801 5800 5800 5799 5798 5798 5797 5797 5797 5797 5798 5798 5798 5798 5799 5799 5799 5800 5801 5801 5801 5801 5801 5801 5800 5800 5800
5796 5797 5798 5798 5799 5799 5799 5799 5799 5798 5798 5797 5797 5796 5795 5794 5793 5791 5790 5790 5789 5788 5788 5788 5788 5788 5788 5788 5789 5789 5790 5790 5790 5791 5792 5792 5792 5793 5793 5793 5792 5792 5792
5790 5790 5791 5791 5792 5792 5792 5791 5791 5791 5790 5789 5788 5787 5786 5785 5783 5782 5781 5780 5779 5779 5778 5778 5778 5778 5778 5779 5779 5779 5780 5780 5781 5781 5782 5783 5783 5784 5784 5784 5784 5784 5783
5783 5783 5784 5784 5784 5784 5784 5783 5783 5782 5782 5781 5780 5778 5777 5775 5774 5773 5772 5771 5770 5769 5768 5768 5768 5768 5768 5768 5769 5769 5769 5770 5771 5771 5772 5773 5773 5774 5774 5774 5774 5774 5774
5776 5776 5777 5777 5777 5777 5776 5775 5775 5774 5773 5772 5771 5769 5767 5766 5765 5764 5763 5761 5760 5759 5758 5758 5758 5757 5757 5758 5758 5758 5759 5759 5760 5760 5761 5761 5762 5763 5763 5763 5764 5764 5764
5768 5769 5769 5769 5769 5769 5768 5767 5766 5765 5764 5763 5761 5760 5758 5757 5756 5754 5753 5752 5750 5749 5748 5747 5746 5746 5746 5746 5747 5747 5747 5748 5748 5749 5749 5750 5751 5751 5752 5752 5752 5753 5753
5761 5762 5762 5762 5761 5761 5760 5759 5758 5757 5755 5754 5752 5750 5749 5747 5746 5744 5743 5741 5740 5738 5737 5735 5735 5735 5735 5734 5735 5735 5735 5736 5736 5737 5737 5738 5738 5739 5739 5740 5740 5741 5741
5754 5754 5754 5754 5753 5752 5752 5751 5749 5748 5747 5745 5743 5741 5739 5737 5735 5733 5732 5730 5728 5727 5725 5724 5723 5722 5722 5722 5722 5722 5723 5723 5723 5724 5725 5725 5725 5726 5726 5727 5727 5728 5728
5746 5746 5746 5746 5745 5744 5743 5742 5741 5740 5738 5736 5734 5732 5729 5727 5725 5723 5721 5719 5717 5715 5713 5711 5710 5710 5709 5709 5709 5710 5710 5710 5710 5711 5711 5712 5712 5712 5712 5713 5714 5714 5715
5738 5738 5738 5737 5736 5735 5734 5732 5731 5730 5729 5727 5724 5722 5719 5717 5715 5713 5711 5708 5706 5704 5701 5699 5697 5696 5696 5695 5695 5695 5697 5699 5698 5698 5698 5698 5698 5698 5699 5699 5700 5700 5700
5731 5730 5730 5729 5728 5726 5725 5723 5722 5721 5719 5717 5715 5712 5710 5707 5704 5702 5700 5698 5695 5693 5690 5688 5685 5683 5683 5682 5682 5682 5682 5684 5686 5687 5686 5685 5685 5685 5685 5685 5686 5686 5687
5723 5722 5721 5720 5719 5717 5716 5715 5713 5712 5710 5708 5706 5703 5700 5697 5694 5692 5690 5687 5685 5682 5679 5676 5672 5670 5670 5670 5669 5669 5670 5671 5672 5674 5674 5673 5672 5671 5672 5672 5673 5673 5674
5714 5714 5712 5711 5710 5709 5707 5706 5704 5703 5701 5699 5696 5693 5690 5687 5684 5682 5680 5677 5674 5671 5667 5664 5660 5658 5657 5657 5657 5657 5658 5658 5658 5659 5661 5662 5661 5660 5659 5660 5661 5661 5661
5706 5705 5704 5703 5702 5701 5699 5698 5696 5694 5692 5690 5687 5684 5680 5678 5675 5672 5669 5667 5663 5660 5656 5653 5649 5647 5646 5646 5646 5645 5646 5646 5647 5647 5648 5648 5649 5648 5648 5648 5649 5649 5649
Wind_Speed
18 18 17 17 17 17 17 17 17 16 16 15 15 15 15 15 15 15 15 15 15 14 14 14 13 13 13 13 13 12 12 12 13 12 12 12 12 12 12 12 12 11 11
19 19 19 19 19 18 18 18 18 18 18 18 17 17 17 17 17 17 17 17 17 16 16 16 16 15 15 15 15 14 14 14 14 14 14 14 14 14 14 14 13 13 13
21 21 20 20 20 20 20 20 20 20 20 20 19 19 19 19 19 19 19 19 19 19 19 18 18 18 17 17 17 17 16 16 16 16 16 16 16 15 15 15 15 15 15
22 22 22 21 21 21 21 21 21 21 21 21 21 21 21 21 21 21 21 21 21 21 21 20 20 20 19 19 19 19 19 18 19 19 18 18 18 18 18 17 17 17 17
23 23 23 22 22 22 22 22 22 22 22 22 22 23 23 23 23 24 24 24 24 24 23 23 22 22 22 22 22 22 22 21 21 21 21 21 21 20 20 20 19 19 19
24 24 24 23 23 23 22 22 23 23 23 23 24 24 24 25 25 25 26 26 26 26 26 25 25 25 24 25 25 25 24 24 23 23 23 23 23 23 22 22 22 22 21
24 25 25 24 24 24 24 24 24 24 24 24 25 25 26 26 26 27 27 28 28 28 28 27 27 27 26 26 27 26 26 26 26 26 25 25 25 25 24 24 24 23 24
25 25 25 25 25 25 25 25 25 25 25 26 26 27 27 27 28 28 28 29 29 29 30 30 30 29 29 29 29 29 29 28 28 27 27 27 27 26 26 26 25 25 25
26 25 25 25 25 25 26 26 26 26 26 27 27 28 28 28 29 29 30 30 31 31 32 32 32 32 32 32 31 31 31 30 30 30 29 29 29 28 28 28 28 27 27
26 26 27 27 27 27 27 27 27 27 28 28 29 30 30 31 31 31 32 33 33 33 34 34 34 34 34 34 33 33 33 32 32 31 31 30 30 30 30 30 30 29 29
27 27 28 28 28 28 28 28 29 29 30 30 31 31 32 33 33 34 35 35 36 36 36 36 36 36 36 35 35 35 35 34 33 33 32 32 31 31 31 31 31 31 30
28 28 28 28 29 29 29 30 30 31 31 32 33 33 34 35 36 37 37 37 38 38 38 38 38 37 37 37 37 37 36 36 36 35 34 34 33 33 33 33 33 33 32
29 29 29 30 30 30 31 31 32 33 33 34 35 36 37 38 39 39 39 39 39 39 39 39 39 39 39 39 39 39 39 39 38 38 37 36 36 35 35 35 34 34 34
29 29 30 31 32 32 33 33 34 34 35 36 36 37 38 39 40 40 40 40 40 40 40 40 40 40 41 41 41 41 42 41 40 40 39 38 38 38 37 37 37 36 36
30 30 31 32 33 33 34 34 35 35 35 36 36 37 38 38 38 39 40 40 40 41 41 42 42 42 43 43 43 43 43 42 42 42 41 41 41 41 40 40 39 39 39
31 32 32 33 33 33 34 35 35 36 37 37 38 39 39 39 39 39 39 40 40 41 42 42 42 43 44 44 45 45 45 44 44 44 44 43 44 44 43 43 42 42 42
32 32 32 32 33 33 34 35 35 36 37 38 39 39 39 39 38 39 39 40 41 42 42 43 44 44 44 45 46 46 46 46 46 46 46 46 46 46 46 45 45 45 45
31 31 31 32 33 34 34 35 35 36 36 37 37 38 38 39 39 40 40 41 42 42 43 44 45 45 45 46 47 47 48 47 47 47 47 48 48 47 47 47 47 47 47
30 30 31 31 32 33 34 34 35 35 36 36 36 37 38 39 40 40 41 42 43 43 44 44 45 46 47 47 48 48 49 49 49 49 48 49 49 49 49 48 49 48 48
30 30 30 31 31 32 33 34 35 35 36 36 36 37 38 38 39 40 40 41 42 43 44 45 45 47 48 48 48 49 49 49 50 50 49 49 49 51 51 50 50 50 50
30 30 30 30 31 32 33 34 34 35 36 36 36 37 38 38 38 39 40 41 42 43 44 45 46 47 48 49 49 49 48 48 48 48 49 49 50 51 51 52 52 52 52
29 29 30 30 31 32 33 33 34 34 35 35 36 37 38 38 39 39 40 41 42 43 45 45 45 46 47 48 49 49 48 48 47 47 48 49 50 51 52 52 53 53 53
29 29 30 30 30 31 31 32 33 33 34 35 36 37 37 38 38 38 39 40 41 42 42 43 45 46 47 47 47 48 48 47 46 46 46 48 50 51 52 52 52 52 53
29 29 30 30 30 30 30 31 32 33 33 34 35 36 37 37 37 38 38 39 40 41 41 42 43 44 45 45 45 46 46 46 46 46 46 47 48 49 51 50 50 50 51
29 29 30 30 29 30 30 31 32 33 33 34 35 35 36 36 37 37 38 39 40 40 41 41 41 41 42 43 44 44 45 46 46 46 46 46 46 47 48 49 49 49 49
30 30 30 30 30 30 31 32 32 32 33 34 35 35 35 35 36 37 38 39 39 39 39 39 40 40 41 42 42 42 43 44 44 45 45 45 45 45 46 47 47 48 48
Wind_Direction
239 240 241 243 243 245 247 248 250 251 252 252 252 254 256 258 259 260 261 262 264 265 265 265 266 269 273 275 275 276 278 279 281 281 278 277 278 276 277 277 279 281 286
241 243 244 246 247 248 249 250 251 252 253 254 255 256 257 258 259 261 261 261 262 264 266 267 267 268 270 272 273 274 276 277 277 279 277 275 276 277 276 275 276 278 279
243 245 246 248 250 252 252 252 253 254 254 255 256 256 258 258 260 262 262 262 262 262 263 265 267 268 268 270 272 273 274 275 275 276 276 274 273 274 274 275 275 274 276
245 246 248 250 251 253 253 253 254 255 255 256 257 258 259 260 261 262 263 264 264 263 263 263 265 267 268 268 269 271 272 273 273 274 274 274 275 274 272 274 275 274 276
246 248 250 251 251 251 252 252 253 255 256 258 259 260 261 262 263 263 264 266 266 266 265 265 266 267 268 268 268 269 270 271 272 273 273 273 274 274 274 273 273 274 275
247 249 250 251 252 252 253 254 255 256 257 258 260 261 263 263 264 264 265 266 267 267 267 266 267 267 268 268 269 269 270 270 270 271 272 272 272 273 272 273 273 272 272
249 250 250 251 252 254 254 255 256 257 258 260 261 262 263 265 266 266 266 266 267 266 267 267 268 268 269 268 269 269 270 270 270 270 271 271 271 272 272 273 274 274 272
248 249 250 251 252 254 256 257 257 259 260 261 262 263 264 265 266 267 267 268 268 266 267 267 267 267 268 268 268 268 269 270 271 271 271 270 270 269 270 272 273 274 275
248 249 251 253 254 256 257 258 259 261 262 263 264 265 266 266 267 268 268 269 269 268 268 267 266 266 267 267 267 267 268 269 270 271 270 269 269 268 269 271 272 274 274
249 251 253 254 256 257 258 260 261 262 264 265 266 267 268 269 269 270 270 269 269 268 268 267 267 266 266 266 266 266 266 267 269 270 270 270 269 268 269 270 272 273 274
250 252 254 256 257 259 260 261 263 264 266 267 268 269 270 270 271 271 272 272 271 269 268 267 267 267 266 266 266 266 265 266 266 268 268 268 268 268 268 269 271 272 273
251 253 255 257 258 259 261 263 264 266 267 269 270 271 271 272 272 273 273 273 272 270 269 268 267 267 266 266 266 265 264 265 265 266 267 267 267 268 269 269 270 271 272
253 255 256 257 258 260 262 264 266 267 268 269 270 271 272 272 273 273 273 272 271 270 269 268 266 265 266 266 266 265 265 266 266 265 265 266 266 267 268 269 270 270 271
254 256 257 259 261 263 265 266 268 269 269 270 272 272 273 273 273 273 272 271 270 269 268 267 266 266 265 265 266 265 265 265 265 266 265 265 265 266 267 268 269 269 270
256 258 259 261 263 265 266 268 269 270 271 272 273 274 274 274 274 273 273 271 269 268 268 267 266 266 265 265 265 264 265 265 265 266 265 265 265 266 266 267 268 269 270
257 259 261 262 263 265 267 269 270 271 272 273 274 275 275 275 274 273 272 272 270 270 269 268 267 267 265 264 264 265 265 265 265 265 265 265 265 265 266 267 268 268 269
258 260 261 262 264 266 269 270 271 272 273 275 275 276 275 274 273 273 273 273 272 271 270 269 268 268 267 266 265 265 266 265 265 265 264 264 264 265 266 266 267 267 268
258 259 262 264 266 268 269 270 271 273 275 276 277 277 275 274 274 273 273 273 273 272 271 269 267 267 267 266 265 265 265 266 265 264 263 264 264 265 265 266 266 266 267
258 260 263 266 268 269 270 270 272 273 275 277 279 279 277 275 275 274 274 273 273 273 272 270 267 267 267 267 266 266 266 265 265 264 264 264 264 264 264 265 265 265 266
259 262 264 266 268 270 271 272 272 274 275 278 280 280 278 277 276 276 276 276 276 276 274 271 269 268 267 267 266 266 266 265 264 264 264 264 264 264 264 264 265 265 265
261 264 266 267 269 271 272 273 273 274 276 279 281 281 280 279 279 278 278 278 277 277 277 275 272 269 268 267 267 266 266 266 266 265 265 265 264 264 265 264 265 266 266
263 265 267 269 271 272 273 274 274 275 277 279 282 281 280 280 280 279 279 279 280 279 277 276 273 271 269 268 267 266 266 265 266 267 266 265 265 265 265 266 266 267 266
263 266 268 270 272 273 274 274 275 276 278 280 282 282 281 281 280 281 280 280 280 281 280 278 276 274 271 269 268 268 267 266 266 267 267 266 266 266 265 266 266 267 267
264 267 269 271 272 274 275 276 277 277 279 281 282 283 283 282 281 282 282 282 283 282 282 282 279 275 271 270 269 268 267 267 267 267 267 269 268 266 265 265 266 267 268
264 268 270 271 273 275 277 278 279 279 280 282 283 284 283 283 282 282 283 283 285 285 285 283 280 276 273 271 270 268 267 268 268 269 269 269 269 267 267 266 266 268 269
266 269 270 272 274 276 277 278 280 280 281 282 283 284 284 284 284 284 284 285 287 287 286 283 281 279 276 272 270 269 268 269 269 270 270 270 268 268 268 266 266 267 268